Location: Ferintosh
(52.7647°N, 112.9692°W)
Time: 18:10:46
(UTC+00:00)

Explorer 7 - Pass Details

Date: 21 May 2024
Orbit: 466 x 622 km, 50.3° (Epoch: 15 June)

Event Time Altitude Azimuth Distance (km) Brightness Sun altitude
Rises 11:22:07 0° 278° (W) 2,669 9.9 -1.2°
Reaches altitude 10° 11:24:23 10° 270° (W) 1,805 9.0 -0.9°
Maximum altitude 11:28:13 39° 202° (SSW) 850 7.4 -0.4°
Drops below altitude 10° 11:32:15 10° 133° (SE) 1,894 9.7 0.1°
Sets 11:34:41 0° 126° (SE) 2,818 10.7 0.4°
